MB7UKB-10 Weather Reports


time (UTC)temp
C
wind
direction
speed
KPH
gust
KPH
rain 1hr
cm
rain 24hr
cm
rain mn
cm
humidity
%
barometer
mb
20260505222009 11 265 3.2 6.4 0.00 0.00 0.00 68 1013.2
20260505215008 12 245 3.2 8.0 0.00 0.00 0.00 66 1012.9
20260505212008 12 337 4.8 6.4 0.00 0.00 0.00 65 1012.7
20260505205008 12 153 4.8 8.0 0.00 0.00 0.00 69 1012.8
20260505202008 13 315 1.6 6.4 0.00 0.00 0.00 66 1012.4
20260505195008 13 231 1.6 4.8 0.00 0.00 0.00 64 1012.1
20260505192008 13 61 3.2 3.2 0.00 0.00 0.00 62 1011.8
20260505185008 14 117 0.0 4.8 0.00 0.00 0.00 61 1011.9
20260505182008 15 136 0.0 4.8 0.00 0.00 0.00 59 1011.7
20260505175009 15 134 3.2 6.4 0.00 0.00 0.00 57 1011.6
20260505172008 15 224 3.2 6.4 0.00 0.00 0.00 55 1011.8
20260505165008 15 265 4.8 4.8 0.00 0.00 0.00 56 1011.9
20260505162008 15 224 0.0 4.8 0.00 0.00 0.00 58 1011.8
20260505152009 15 291 0.0 6.4 0.00 0.00 0.00 57 1012.0
20260505125009 16 30 0.0 3.2 0.00 0.00 0.00 53 1012.5
20260505122009 16 163 3.2 4.8 0.00 0.00 0.00 53 1012.5
20260505115008 16 146 0.0 4.8 0.00 0.00 0.00 54 1012.7
20260505112009 15 117 3.2 4.8 0.00 0.00 0.00 58 1012.8
20260505102009 13 140 3.2 3.2 0.00 0.00 0.00 67 1013.2
20260505095009 13 293 3.2 4.8 0.00 0.00 0.00 69 1013.3
20260505092008 12 200 3.2 6.4 0.00 0.00 0.00 73 1013.2
20260505085009 12 122 3.2 6.4 0.00 0.00 0.00 74 1013.5
20260505082009 12 150 0.0 4.8 0.00 0.00 0.00 80 1013.5
20260505075008 11 162 0.0 3.2 0.00 0.00 0.00 81 1013.5
20260505065008 11 96 1.6 4.8 0.00 0.00 0.00 83 1013.9
20260505062008 10 146 1.6 3.2 0.00 0.00 0.00 85 1013.7
20260505055008 10 196 3.2 3.2 0.00 0.00 0.00 86 1013.8
20260505052009 10 153 3.2 3.2 0.00 0.00 0.00 86 1013.8
20260505035008 10 218 0.0 1.6 0.00 0.00 0.00 86 1014.0
20260505032008 10 9 0.0 1.6 0.00 0.00 0.00 86 1014.0
20260505025008 10 297 0.0 1.6 0.00 0.00 0.00 86 1013.9
20260505022009 10 89 0.0 3.2 0.00 0.00 0.00 87 1013.8
20260505015008 10 129 0.0 0.0 0.00 0.00 0.00 84 1014.1
20260505012009 11 143 0.0 3.2 0.00 0.00 0.00 82 1014.4
20260505005009 11 123 1.6 3.2 0.00 0.00 0.00 82 1014.4
20260505002009 11 5 1.6 3.2 0.00 0.00 0.00 81 1014.4
20260504235009 12 246 0.0 4.8 0.00 0.00 0.00 80 1014.6
20260504232009 12 297 0.0 3.2 0.00 0.00 0.00 81 1014.9
20260504225009 12 154 0.0 3.2 0.00 0.00 0.00 81 1014.8